Location: Ocean City
(38.3360°N, 75.0850°W)
Time: 18:47:27
(UTC-04:00)

BEESAT 2 - Pass Details

Date: 19 May 2019
Orbit: 502 x 528 km, 64.9° (Epoch: 18 June)

Event Time Altitude Azimuth Distance (km) Brightness Sun altitude
Rises 04:09:51 0° 340° (NNW) 2,669 ? -16.4°
Reaches altitude 10° 04:12:20 10° 354° (N) 1,778 ? -16.0°
Maximum altitude 04:15:41 25° 51° (NE) 1,093 ? -15.5°
Drops below altitude 10° 04:19:00 10° 108° (ESE) 1,769 ? -15.1°
Sets 04:21:27 0° 122° (ESE) 2,653 ? -14.7°
